Regional Weather Roundup
Issued by NWS

Home | Current Version | Previous Version | Graphics & Text | Print | Product List | Glossary On
Versions: 1 2 3 4 5 6 7 8 9 10 11 12 13 14 15 16 17 18 19 20 21 22 23 24 25 26 27 28 29 30 31 32 33 34 35 36 37 38 39 40 41 42 43 44 45 46 47 48 49 50
000
ASUS43 KMPX 131501
RWRMN
WEATHER ROUNDUP FOR MINNESOTA
NATIONAL WEATHER SERVICE TWIN CITIES/CHANHASSEN MN
900 AM CST WED DEC 13 2017


NOTE: "FAIR" INDICATES FEW OR NO CLOUDS BELOW 12,000 FEET WITH NO
SIGNIFICANT WEATHER AND/OR OBSTRUCTIONS TO VISIBILITY. N/A MEANS
CURRENT SKY AND/OR WEATHER CONDITIONS ARE NOT AVAILABLE.

MNZ060>063-068>070-131600-
   Twin Cities Metro

CITY           SKY/WX    TMP DP  RH WIND       PRES   REMARKS
TWIN CITIES    CLOUDY    26  24  92 NW15      29.45R WCI  14
ST PAUL        CLOUDY    25  22  88 NW20      29.46R WCI  11
CRYSTAL        CLOUDY    25  19  78 NW15      29.46R WCI  13
BLAINE         CLOUDY    25  21  86 NW16      29.45R WCI  12
LAKEVILLE      LGT SNOW  27  27 100 NW12      29.41R WCI  16
EDEN PRAIRIE   CLOUDY    29  24  82 NW17G32   29.45R WCI  17
SOUTH ST PAUL  CLOUDY    26  23  89 N13       29.44R WCI  15
LAKE ELMO      LGT SNOW  25  21  86 N10       29.45R WCI  15
$$
MNZ001>005-007-008-013>017-022>024-027-028-131600-
   Northwest Minnesota

CITY           SKY/WX    TMP DP  RH WIND       PRES   REMARKS
BEMIDJI        CLOUDY    18  15  89 NW14      29.60R WCI   4
HALLOCK        CLOUDY    25  21  86 N14G21    29.72R WCI  13
ROSEAU         CLOUDY    18  12  79 N14       29.68R WCI   4
WARROAD        CLOUDY    16  10  79 N6        29.68R WCI   7
CROOKSTON      CLOUDY    25  21  86 N24G31    29.71R WCI   9
FOSSTON        CLOUDY    19  18  93 N15       29.66R FOG     WCI   5
DETROIT LAKES  CLOUDY    25  23  93 NW24G33   29.64R FOG     WCI   9
MOORHEAD       CLOUDY    28  23  80 N24G30    29.71R WCI  14
PARK RAPIDS    CLOUDY    22  18  85 NW17G26   29.57R WCI   8
$$
MNZ006-009>011-018-025>026-131600-
   North Central Minnesota

CITY           SKY/WX    TMP DP  RH WIND       PRES   REMARKS
BAUDETTE       LGT SNOW  14  11  87 N9        29.64R FOG     WCI   2
FLAG ISLAND    FLURRIES  12   9  85 N9        29.67R WCI   0
INTL FALLS     HVY SNOW  15  10  80 N6        29.64R VSB 1/4 WCI   6
WASKISH        CLOUDY    16  14  93 N8        29.62R FOG     WCI   5
BIG FORK       LGT SNOW  18  14  86 N5        29.59R WCI  11
LONGVILLE      CLOUDY    18  16  93 NW12G20   29.57R FOG     WCI   5
GRAND RAPIDS   FLURRIES  16  14  92 N12       29.58R WCI   3
CRANE LAKE     LGT SNOW  14  10  85 NE3       29.64R
ORR            CLOUDY    16  10  79 NE3       29.56R
COOK           FLURRIES  18  16  93 NE7       29.57R WCI   8
WALKER         CLOUDY    18  16  90 N12G22    29.58R FOG     WCI   6
$$
MNZ012-019>021-037-131600-
   Northeast Minnesota

CITY           SKY/WX    TMP DP  RH WIND       PRES   REMARKS
DULUTH         LGT SNOW  20  18  92 NE7       29.47R FOG     WCI  11
ELY            LGT SNOW  16  12  86 N5        29.56R VSB 1   WCI   9
HIBBING        CLOUDY    18  15  88 N8        29.53R WCI   8
EVELETH        FLURRIES  19  14  81 N6        29.54R WCI  10
DULUTH HARBOR  LGT SNOW  25  21  86 E14       29.52R WCI  13
TWO HARBORS    LGT SNOW  25  19  80 NE10G18   29.49R WCI  15
GRAND MARAIS     N/A     25  21  85 E23G31    29.61S WCI  10
G MARAIS ARPRT LGT SNOW  16  10  79 NE9       29.54R VSB 3/4 WCI   4
$$
MNZ029>031-032-039>041-046>048-054>057-064-131600-
   West Central Minnesota

CITY           SKY/WX    TMP DP  RH WIND       PRES   REMARKS
FERGUS FALLS   CLOUDY    25  25 100 N24G37    29.69R FOG     WCI   9
WHEATON        CLOUDY    30  27  86 NW30G39   29.72R WCI  15
MORRIS         CLOUDY    30  27  86 NW38G47   29.62R WCI  14
ALEXANDRIA     CLOUDY    27  24  89 NW23G37   29.59R WCI  12
ELBOW LAKE     CLOUDY    26  23  87 NW26G39   29.65R WCI  11
WADENA         CLOUDY    25  23  93 NW21G26   29.58R WCI  10
GLENWOOD       MOCLDY    28  25  86 NW28G33   29.58R WCI  13
APPLETON       CLOUDY    34  27  75 N30G41    29.65R WCI  20
BENSON         CLOUDY    30  25  80 N30G40    29.63R WCI  15
ORTONVILLE     MIX PCPN  32  28  86 N26G33    29.68R WCI  18
MADISON        CLOUDY    36  34  93 N29       29.67R
WILLMAR        CLOUDY    32  28  86 NW28G33   29.56R WCI  18
$$
MNZ033>034-036-042>043-049>051-058-059-131600-
   Central Minnesota

CITY           SKY/WX    TMP DP  RH WIND       PRES   REMARKS
ST CLOUD       CLOUDY    28  24  85 N22G32    29.50R WCI  14
SAUK CENTRE    CLOUDY    28  25  86 NW23G33   29.55R WCI  14
PAYNESVILLE    CLOUDY    31  28  90 NW21G31   29.54R WCI  18
AITKIN         CLOUDY    16  12  86 N7        29.53R FOG     WCI   6
PINE RIVER     CLOUDY    18  16  93 N13G23    29.60R FOG     WCI   4
BRAINERD       MIX PCPN  21  17  84 N20G32    29.54R FOG     WCI   6
STAPLES        CLOUDY    25  21  86 NW18G24   29.55R WCI  11
LONG PRAIRIE   CLOUDY    28  25  86 W23G37    29.53R FOG     WCI  14
LITTLE FALLS   CLOUDY    28  21  74 NW10G16   29.54R WCI  19
LITCHFIELD     CLOUDY    34  30  86 NW23G38   29.52R WCI  22
BUFFALO        CLOUDY    28  25  88 NW16G25   29.50R WCI  16
MAPLE LAKE     CLOUDY    30  28  91 NW21G26   29.50R WCI  17
HUTCHINSON     CLOUDY    35  31  85 NW28G35   29.50R WCI  22
$$
MNZ037-044-045-052-053-131600-
   East Central Minnesota

CITY           SKY/WX    TMP DP  RH WIND       PRES   REMARKS
PRINCETON      CLOUDY    27  21  80 NW14      29.49R WCI  15
MORA           CLOUDY    21  18  86 N7        29.51R WCI  13
CAMBRIDGE      CLOUDY    25  19  80 N8        29.48R WCI  16
RUSH CITY      CLOUDY    21  18  86 N9        29.48R WCI  11
MOOSE LAKE     CLOUDY    19  16  86 CALM      29.48R
HINCKLEY       CLOUDY    19  18  93 N10       29.49R WCI   8
CLOQUET        FLURRIES  19  16  86 N3        29.48R
MCGREGOR       CLOUDY    19  18  93 NW10      29.53R WCI   8
$$
MNZ071>073-080-081-089-090-097-098-131600-
   Southwest Minnesota

CITY           SKY/WX    TMP DP  RH WIND       PRES   REMARKS
MONTEVIDEO     CLOUDY    32  28  86 N30G46    29.63R WCI  18
GRANITE FALLS  CLOUDY    34  30  85 NW29G45   29.62R WCI  20
CANBY          CLOUDY    36  32  87 W24G32    29.68R
MARSHALL       CLOUDY    34  29  82 N31G43    29.62R WCI  20
REDWOOD FALLS  CLOUDY    32  27  81 NW23G46   29.57R WCI  19
OLIVIA         CLOUDY    32  30  93 NW26G41   29.56R WCI  18
PIPESTONE      CLOUDY    36  30  80 N24G36    29.64R
WINDOM           N/A     34  21  60 NW44G55   29.54R WCI  18
WORTHINGTON    CLOUDY    35  32  88 NW35G41   29.60R WCI  21
JACKSON        CLOUDY    34  32  93 MISG      29.54R
SLAYTON        CLOUDY    35  32  89 NW31G45   29.59R WCI  21
$$
MNZ065>067-074>077-082>085-091>093-131600-
   South Central Minnesota

CITY           SKY/WX    TMP DP  RH WIND       PRES   REMARKS
MANKATO        CLOUDY    34  32  92 NW17G26   29.48R WCI  23
NEW ULM        CLOUDY    32  28  86 NW30G43   29.51R WCI  18
ST JAMES       CLOUDY    32  30  93 NW33G44   29.52R WCI  17
FAIRMONT       CLOUDY    35  31  85 NW33G43   29.50R WCI  21
GLENCOE        CLOUDY    34  32  90 NW20G29   29.48R WCI  23
FARIBAULT      FLURRIES  30  27  86 NW14G21   29.43R WCI  20
OWATONNA       LGT SNOW  32  28  86 NW23      29.42R WCI  19
WASECA         LGT SNOW  32  30  93 NW24G32   29.45R WCI  19
ALBERT LEA     PTSUNNY   36  28  75 NW26G32   29.39R
$$
MNZ078>079-086>088-094>096-131600-
   Southeast Minnesota

CITY           SKY/WX    TMP DP  RH WIND       PRES   REMARKS
ROCHESTER      CLOUDY    31  26  82 NW28      29.33R WCI  17
RED WING       LGT SNOW  25  18  74 N7        29.40R WCI  17
STANTON        LGT SNOW  29  26  88 NW10      29.40R WCI  20
DODGE CENTER   CLOUDY    30  27  86 NW18G24   29.36R WCI  18
WINONA         PTSUNNY   30  23  74 CALM      29.35R
PRESTON        CLOUDY    33  26  77 NW16      29.31R WCI  22
$$
ABBREVIATIONS USED IN REMARKS
   TC - TEMPERATURES IN CELSIUS
  WCI - WIND CHILL INDEX
   HX - HEAT INDEX
  VSB - VISIBILITY
$$




USA.gov is the U.S. government's official web portal to all federal, state and local government web resources and services.